Time,TemperatureF,DewpointF,PressureIn,WindDirection,WindDirectionDegrees,WindSpeedMPH,WindSpeedGustMPH,Humidity,HourlyPrecipIn,Conditions,Clouds,dailyrainin,SoftwareType,DateUTC
2014-01-25 00:14:00,55.2,51.0,30.23,WNW,287,0.0,-999.0,85,-99.99,,,0.00,weatherlink.com 1.10,2014-01-25 05:14:00,
2014-01-25 00:29:00,54.8,50.0,30.22,NW,306,1.0,-999.0,85,-99.99,,,0.00,weatherlink.com 1.10,2014-01-25 05:29:00,
2014-01-25 00:44:00,54.3,50.0,30.22,NW,313,1.0,-999.0,86,-99.99,,,0.00,weatherlink.com 1.10,2014-01-25 05:44:00,
2014-01-25 00:59:00,54.0,50.0,30.22,NW,315,2.0,-999.0,87,-99.99,,,0.00,weatherlink.com 1.10,2014-01-25 05:59:00,
2014-01-25 01:14:00,53.8,50.0,30.22,WNW,290,1.0,-999.0,87,-99.99,,,0.00,weatherlink.com 1.10,2014-01-25 06:14:00,
2014-01-25 01:29:00,53.6,50.0,30.21,WNW,284,0.0,-999.0,88,-99.99,,,0.00,weatherlink.com 1.10,2014-01-25 06:29:00,
2014-01-25 01:44:00,53.2,50.0,30.20,NW,304,1.0,-999.0,88,-99.99,,,0.00,weatherlink.com 1.10,2014-01-25 06:44:00,
2014-01-25 01:59:00,53.3,50.0,30.20,WNW,290,1.0,-999.0,89,-99.99,,,0.00,weatherlink.com 1.10,2014-01-25 06:59:00,
2014-01-25 02:14:00,53.3,51.0,30.20,WNW,303,0.0,-999.0,90,-99.99,,,0.00,weatherlink.com 1.10,2014-01-25 07:14:00,
2014-01-25 02:29:00,53.0,50.0,30.20,NW,311,0.0,-999.0,90,-99.99,,,0.00,weatherlink.com 1.10,2014-01-25 07:29:00,
2014-01-25 02:44:00,52.7,50.0,30.19,WNW,288,1.0,-999.0,90,-99.99,,,0.00,weatherlink.com 1.10,2014-01-25 07:44:00,
2014-01-25 02:59:00,52.4,50.0,30.19,WNW,286,1.0,-999.0,90,-99.99,,,0.00,weatherlink.com 1.10,2014-01-25 07:59:00,
2014-01-25 03:14:00,52.2,49.0,30.19,WNW,290,0.0,-999.0,90,-99.99,,,0.00,weatherlink.com 1.10,2014-01-25 08:14:00,
2014-01-25 03:29:00,52.0,49.0,30.18,WNW,299,1.0,-999.0,90,-99.99,,,0.00,weatherlink.com 1.10,2014-01-25 08:29:00,
2014-01-25 03:44:00,51.8,49.0,30.18,WNW,299,1.0,-999.0,91,-99.99,,,0.00,weatherlink.com 1.10,2014-01-25 08:44:00,
2014-01-25 03:59:00,51.6,49.0,30.18,NW,310,1.0,-999.0,91,-99.99,,,0.00,weatherlink.com 1.10,2014-01-25 08:59:00,
2014-01-25 04:14:00,51.5,49.0,30.18,NW,306,2.0,-999.0,91,-99.99,,,0.00,weatherlink.com 1.10,2014-01-25 09:14:00,
2014-01-25 04:29:00,51.4,49.0,30.18,WNW,282,0.0,-999.0,92,-99.99,,,0.00,weatherlink.com 1.10,2014-01-25 09:29:00,
2014-01-25 04:44:00,51.4,49.0,30.17,WNW,282,0.0,-999.0,91,-99.99,,,0.00,weatherlink.com 1.10,2014-01-25 09:44:00,
2014-01-25 04:59:00,51.5,49.0,30.17,WNW,295,2.0,-999.0,92,-99.99,,,0.00,weatherlink.com 1.10,2014-01-25 09:59:00,
2014-01-25 05:15:00,51.5,49.0,30.18,NW,323,2.0,-999.0,92,-99.99,,,0.00,weatherlink.com 1.10,2014-01-25 10:15:00,
2014-01-25 05:30:00,51.5,49.0,30.18,WNW,286,3.0,-999.0,92,-99.99,,,0.00,weatherlink.com 1.10,2014-01-25 10:30:00,
2014-01-25 05:45:00,51.7,50.0,30.17,WNW,296,2.0,-999.0,93,-99.99,,,0.00,weatherlink.com 1.10,2014-01-25 10:45:00,
2014-01-25 06:00:00,51.8,50.0,30.18,WNW,298,1.0,-999.0,93,-99.99,,,0.00,weatherlink.com 1.10,2014-01-25 11:00:00,
2014-01-25 06:15:00,51.9,50.0,30.18,NW,321,0.0,-999.0,93,-99.99,,,0.00,weatherlink.com 1.10,2014-01-25 11:15:00,
2014-01-25 06:30:00,51.9,50.0,30.18,NW,309,0.0,-999.0,93,-99.99,,,0.00,weatherlink.com 1.10,2014-01-25 11:30:00,
2014-01-25 06:45:00,52.1,50.0,30.18,NW,311,0.0,-999.0,93,-99.99,,,0.00,weatherlink.com 1.10,2014-01-25 11:45:00,
2014-01-25 07:00:00,52.1,50.0,30.18,WNW,295,0.0,-999.0,93,-99.99,,,0.00,weatherlink.com 1.10,2014-01-25 12:00:00,
2014-01-25 07:15:00,52.2,50.0,30.18,WNW,295,0.0,-999.0,93,-99.99,,,0.00,weatherlink.com 1.10,2014-01-25 12:15:00,
2014-01-25 07:30:00,52.4,51.0,30.18,WNW,295,0.0,-999.0,93,-99.99,,,0.00,weatherlink.com 1.10,2014-01-25 12:30:00,
2014-01-25 07:45:00,52.7,51.0,30.18,WNW,300,1.0,-999.0,93,-99.99,,,0.00,weatherlink.com 1.10,2014-01-25 12:45:00,
2014-01-25 08:00:00,53.2,51.0,30.18,NW,309,0.0,-999.0,93,-99.99,,,0.00,weatherlink.com 1.10,2014-01-25 13:00:00,
2014-01-25 08:15:00,53.9,52.0,30.18,NNW,341,0.0,-999.0,94,-99.99,,,0.00,weatherlink.com 1.10,2014-01-25 13:15:00,
2014-01-25 08:30:00,54.7,53.0,30.18,NNW,333,1.0,-999.0,94,-99.99,,,0.00,weatherlink.com 1.10,2014-01-25 13:30:00,
2014-01-25 08:45:00,55.7,54.0,30.19,NW,323,0.0,-999.0,94,-99.99,,,0.00,weatherlink.com 1.10,2014-01-25 13:45:00,
2014-01-25 09:00:00,57.2,55.0,30.19,North,355,1.0,-999.0,93,-99.99,,,0.00,weatherlink.com 1.10,2014-01-25 14:00:00,
2014-01-25 09:15:00,59.5,57.0,30.18,North,5,0.0,-999.0,91,-99.99,,,0.00,weatherlink.com 1.10,2014-01-25 14:15:00,
2014-01-25 09:30:00,61.9,58.0,30.18,NW,326,0.0,-999.0,87,-99.99,,,0.00,weatherlink.com 1.10,2014-01-25 14:30:00,
2014-01-25 09:45:00,64.0,58.0,30.18,NW,326,0.0,-999.0,82,-99.99,,,0.00,weatherlink.com 1.10,2014-01-25 14:45:00,
2014-01-25 10:00:00,67.2,60.0,30.18,NW,326,1.0,-999.0,78,-99.99,,,0.00,weatherlink.com 1.10,2014-01-25 15:00:00,
2014-01-25 10:15:00,69.6,61.0,30.18,East,94,1.0,-999.0,74,-99.99,,,0.00,weatherlink.com 1.10,2014-01-25 15:15:00,
2014-01-25 10:30:00,71.0,62.0,30.17,ESE,119,3.0,-999.0,73,-99.99,,,0.00,weatherlink.com 1.10,2014-01-25 15:30:00,
2014-01-25 10:45:00,72.1,63.0,30.17,SSE,165,3.0,-999.0,72,-99.99,,,0.00,weatherlink.com 1.10,2014-01-25 15:45:00,
2014-01-25 11:00:00,72.9,62.0,30.16,SSE,161,5.0,-999.0,69,-99.99,,,0.00,weatherlink.com 1.10,2014-01-25 16:00:00,
2014-01-25 11:15:00,72.9,62.0,30.16,SSE,148,2.0,-999.0,69,-99.99,,,0.00,weatherlink.com 1.10,2014-01-25 16:15:00,
2014-01-25 11:30:00,73.6,62.0,30.16,SSE,147,10.0,-999.0,68,-99.99,,,0.00,weatherlink.com 1.10,2014-01-25 16:30:00,
2014-01-25 11:45:00,72.7,62.0,30.15,SSE,154,4.0,-999.0,68,-99.99,,,0.00,weatherlink.com 1.10,2014-01-25 16:45:00,
2014-01-25 12:00:00,72.5,62.0,30.14,SSE,149,1.0,-999.0,69,-99.99,,,0.00,weatherlink.com 1.10,2014-01-25 17:00:00,
2014-01-25 12:15:00,72.9,62.0,30.13,SSE,160,4.0,-999.0,68,-99.99,,,0.00,weatherlink.com 1.10,2014-01-25 17:15:00,
2014-01-25 12:31:00,73.8,63.0,30.12,SSE,157,4.0,-999.0,68,-99.99,,,0.00,weatherlink.com 1.10,2014-01-25 17:31:00,
2014-01-25 12:46:00,74.8,63.0,30.11,SSE,157,5.0,-999.0,67,-99.99,,,0.00,weatherlink.com 1.10,2014-01-25 17:46:00,
2014-01-25 13:01:00,75.9,63.0,30.10,SSE,161,1.0,-999.0,64,-99.99,,,0.00,weatherlink.com 1.10,2014-01-25 18:01:00,
2014-01-25 13:16:00,75.3,61.0,30.09,WSW,249,1.0,-999.0,61,-99.99,,,0.00,weatherlink.com 1.10,2014-01-25 18:16:00,
2014-01-25 13:31:00,75.4,60.0,30.08,SSW,196,1.0,-999.0,60,-99.99,,,0.00,weatherlink.com 1.10,2014-01-25 18:31:00,
2014-01-25 13:46:00,76.6,61.0,30.07,West,271,3.0,-999.0,58,-99.99,,,0.00,weatherlink.com 1.10,2014-01-25 18:46:00,
2014-01-25 14:01:00,77.3,59.0,30.07,West,274,2.0,-999.0,53,-99.99,,,0.00,weatherlink.com 1.10,2014-01-25 19:01:00,
2014-01-25 14:16:00,77.6,59.0,30.07,SSW,192,1.0,-999.0,53,-99.99,,,0.00,weatherlink.com 1.10,2014-01-25 19:16:00,
2014-01-25 14:31:00,77.8,59.0,30.06,WSW,252,2.0,-999.0,52,-99.99,,,0.00,weatherlink.com 1.10,2014-01-25 19:31:00,
2014-01-25 14:46:00,78.2,60.0,30.06,WSW,258,2.0,-999.0,53,-99.99,,,0.00,weatherlink.com 1.10,2014-01-25 19:46:00,
2014-01-25 15:01:00,77.5,60.0,30.06,WSW,252,1.0,-999.0,55,-99.99,,,0.00,weatherlink.com 1.10,2014-01-25 20:01:00,
2014-01-25 15:16:00,77.3,60.0,30.05,WSW,238,1.0,-999.0,56,-99.99,,,0.00,weatherlink.com 1.10,2014-01-25 20:16:00,
2014-01-25 15:31:00,76.9,59.0,30.05,West,265,2.0,-999.0,54,-99.99,,,0.00,weatherlink.com 1.10,2014-01-25 20:31:00,
2014-01-25 15:46:00,77.1,60.0,30.05,West,277,3.0,-999.0,55,-99.99,,,0.00,weatherlink.com 1.10,2014-01-25 20:46:00,
2014-01-25 16:01:00,77.0,59.0,30.05,WNW,284,2.0,-999.0,54,-99.99,,,0.00,weatherlink.com 1.10,2014-01-25 21:01:00,
2014-01-25 16:16:00,76.9,60.0,30.05,West,263,1.0,-999.0,56,-99.99,,,0.00,weatherlink.com 1.10,2014-01-25 21:16:00,
2014-01-25 16:31:00,76.4,58.0,30.04,WSW,248,1.0,-999.0,54,-99.99,,,0.00,weatherlink.com 1.10,2014-01-25 21:31:00,
2014-01-25 16:46:00,76.0,58.0,30.04,West,260,2.0,-999.0,54,-99.99,,,0.00,weatherlink.com 1.10,2014-01-25 21:46:00,
2014-01-25 17:01:00,75.4,58.0,30.05,West,261,0.0,-999.0,56,-99.99,,,0.00,weatherlink.com 1.10,2014-01-25 22:01:00,
2014-01-25 17:16:00,74.7,58.0,30.05,WNW,283,0.0,-999.0,57,-99.99,,,0.00,weatherlink.com 1.10,2014-01-25 22:16:00,
2014-01-25 17:31:00,74.2,58.0,30.05,West,271,0.0,-999.0,58,-99.99,,,0.00,weatherlink.com 1.10,2014-01-25 22:31:00,
2014-01-25 17:46:00,73.4,59.0,30.05,WSW,252,0.0,-999.0,60,-99.99,,,0.00,weatherlink.com 1.10,2014-01-25 22:46:00,
2014-01-25 18:01:00,72.8,59.0,30.05,WSW,252,0.0,-999.0,62,-99.99,,,0.00,weatherlink.com 1.10,2014-01-25 23:01:00,
2014-01-25 18:16:00,72.1,58.0,30.05,WSW,252,0.0,-999.0,62,-99.99,,,0.00,weatherlink.com 1.10,2014-01-25 23:16:00,
2014-01-25 18:31:00,71.4,59.0,30.06,WSW,251,1.0,-999.0,64,-99.99,,,0.00,weatherlink.com 1.10,2014-01-25 23:31:00,
2014-01-25 18:46:00,70.8,58.0,30.06,WSW,251,0.0,-999.0,65,-99.99,,,0.00,weatherlink.com 1.10,2014-01-25 23:46:00,
2014-01-25 19:01:00,70.1,58.0,30.06,SW,236,0.0,-999.0,66,-99.99,,,0.00,weatherlink.com 1.10,2014-01-26 00:01:00,
2014-01-25 19:16:00,69.5,58.0,30.06,SW,236,0.0,-999.0,67,-99.99,,,0.00,weatherlink.com 1.10,2014-01-26 00:16:00,
2014-01-25 19:31:00,69.1,58.0,30.06,SW,236,0.0,-999.0,68,-99.99,,,0.00,weatherlink.com 1.10,2014-01-26 00:31:00,
2014-01-25 19:46:00,68.5,58.0,30.06,SW,236,0.0,-999.0,69,-99.99,,,0.00,weatherlink.com 1.10,2014-01-26 00:46:00,
2014-01-25 20:01:00,67.8,59.0,30.07,SW,219,1.0,-999.0,73,-99.99,,,0.00,weatherlink.com 1.10,2014-01-26 01:01:00,
2014-01-25 20:16:00,67.0,59.0,30.07,SSW,202,0.0,-999.0,75,-99.99,,,0.00,weatherlink.com 1.10,2014-01-26 01:16:00,
2014-01-25 20:31:00,66.7,59.0,30.07,SW,214,0.0,-999.0,75,-99.99,,,0.00,weatherlink.com 1.10,2014-01-26 01:31:00,
2014-01-25 20:46:00,66.8,59.0,30.07,SSW,211,0.0,-999.0,75,-99.99,,,0.00,weatherlink.com 1.10,2014-01-26 01:46:00,
2014-01-25 21:01:00,67.0,59.0,30.07,SSW,211,0.0,-999.0,75,-99.99,,,0.00,weatherlink.com 1.10,2014-01-26 02:01:00,
2014-01-25 21:16:00,67.0,59.0,30.08,SSW,211,0.0,-999.0,75,-99.99,,,0.00,weatherlink.com 1.10,2014-01-26 02:16:00,
2014-01-25 21:31:00,66.8,59.0,30.08,SSW,208,0.0,-999.0,76,-99.99,,,0.00,weatherlink.com 1.10,2014-01-26 02:31:00,
2014-01-25 21:46:00,66.5,59.0,30.08,SSW,208,0.0,-999.0,77,-99.99,,,0.00,weatherlink.com 1.10,2014-01-26 02:46:00,
2014-01-25 22:01:00,66.2,60.0,30.08,SSW,209,0.0,-999.0,79,-99.99,,,0.00,weatherlink.com 1.10,2014-01-26 03:01:00,
2014-01-25 22:16:00,65.8,59.0,30.09,SW,221,0.0,-999.0,79,-99.99,,,0.00,weatherlink.com 1.10,2014-01-26 03:16:00,
2014-01-25 22:31:00,65.4,59.0,30.09,SW,221,0.0,-999.0,80,-99.99,,,0.00,weatherlink.com 1.10,2014-01-26 03:31:00,
2014-01-25 22:46:00,64.7,59.0,30.09,SW,221,0.0,-999.0,82,-99.99,,,0.00,weatherlink.com 1.10,2014-01-26 03:46:00,
2014-01-25 23:01:00,64.0,59.0,30.10,SW,221,0.0,-999.0,83,-99.99,,,0.00,weatherlink.com 1.10,2014-01-26 04:01:00,
2014-01-25 23:16:00,63.5,59.0,30.10,SW,221,0.0,-999.0,84,-99.99,,,0.00,weatherlink.com 1.10,2014-01-26 04:16:00,
2014-01-25 23:31:00,62.9,59.0,30.10,SW,221,0.0,-999.0,86,-99.99,,,0.00,weatherlink.com 1.10,2014-01-26 04:31:00,
2014-01-25 23:46:00,62.3,58.0,30.10,SW,221,0.0,-999.0,86,-99.99,,,0.00,weatherlink.com 1.10,2014-01-26 04:46:00,